Карточка аэропорта URSS

Внимание!
Информация на этой странице в стадии наполнения.
Если вы не увидели какой-то информации, или заметили неточность - пожалуйста сообщите нам!
Спасибо!
Команда RU-STAFF
Название аэропортаСочи
Название аэропорта (англ.)Sochi
Превышение89 ft. (27.1 m.)
Координаты43°26.634', 39°56.55'
Высота перехода13000 ft
Эшелон переходаFL140 (QNH >= 1013); FL150 (QNH 977-1012); FL160 (QNH < 977)
Коды ответчика1060-1077
Зона ОрВДРостов-на-Дону РПИ (URRV)
Данные METARURSS 042300Z 05001MPS 9999 -SHRA OVC033CB 16/15 Q1018 R02/290060 R06/290060 NOSIG RMK R06/09003MPS MT OBSC QFE762
Проноз погоды (TAF)URSS 041955Z 0421/0521 04004G09MPS 5000 -SHRA SCT016 BKN030CB OVC100 TEMPO 0421/0509 VRB06G12MPS 1000 TSRA BKN006 BKN020CB OVC100 FM050900 28004G09MPS 9999 SCT040CB OVC100 BECMG 0514/0515 05004G09MPS FEW040 BKN100
NOTAMshow/hide NOTAM
AWOS   TABLE

Информация о ВПП

ВПП Длина ВПП (м.) Покрытие Курс ВПП Частота ILS
062890Цементобетон58111.1
242890Цементобетон238 
022500Цементобетон22110.5
202500Цементобетон202 

Диспетчерские позиции

Позывной Наименование органа УВД Частота
URSS_TWRСочи-Старт121.200
URSS_GNDСочи-Руление119.000
URSS_APPСочи-Подход124.600
URSS_R_APPСочи-Круг119.700
URSS_DELСочи-Деливери132.700
URSS_FM1119.000



Спутниковое изображение